www.pogodaiklimat.ru

Погода и климат >> Архив погоды >> Россия >> Мурманская область >> Сосновец Остров


АРХИВ ПОГОДЫ на Сосновец Острове

Время (UTC), дата Ветер
(напр.,м/с)
 
Видим.   Явления Облачность Т
(С)
Тd
(С)
f
(%)
Тe
(С)
Тes
(С)
Комфортность P
(гПа)
Po
(гПа)
Тmin
(С)
Tmax
(С)
R
(мм)
R24
(мм)
S
(см)
21 19.03 З 5 4000 м слаб. ливневой снег {метель} 10/10 300 м
[Cb cap]
-1.3 -1.4 99 -8 -8 1006.0 1003.8
00 20.03 ЮЗ 5 4000 м слаб. ливневой снег {метель} 10/10 300 м
[Cb cap]
-2.1 -2.5 97 -9 -9 1006.2 1004.0
03 20.03 З 4
{11}
н/о {ливн. осадки, метель} н/о -2.3 -4.0 88 -8 -8 1006.7 1004.5 -2.5 0.9 52
06 20.03 СЗ 8
{11}
20 км 10/10 300 м
[Sc]
-1.8 -3.6 87 -10 -10 1007.3 1005.1
09 20.03 СЗ 8-10
{10}
20 км 8/8 600 м
[Sc]
-1.6 -3.8 85 -10 -9 1007.8 1005.6
12 20.03 СЗ 6
{11}
20 км 8/3 600 м
[Sc Ac trans]
-1.0 -4.8 75 -8 -7 1008.0 1005.8
15 20.03 З 6 20 км 8/0
[Ac trans]
-2.6 -5.7 79 -10 -10 1008.3 1006.0 -0.8
18 20.03 ЮЗ 6 20 км 3/0
[Ac trans]
-6.1 -7.6 89 -14 -14 1008.3 1006.0
21 20.03 З 5 20 км 4/0
[Ac trans]
-5.9 -8.3 83 -13 -13 1008.3 1006.0
00 21.03 СЗ 4 20 км 4/0
[Ac trans]
-6.4 -9.4 79 -13 -13 1008.2 1005.9
03 21.03 ЮЗ 3 20 км 4/0
[Ac trans]
-4.9 -8.6 75 -10 -10 1008.0 1005.7 -6.9 52
06 21.03 ЮЗ 6 20 км 4/0
[Ac trans]
-5.1 -7.0 86 -13 -12 1007.6 1005.4
09 21.03 ЮЗ 4 20 км 9/0
[Ac trans]
-3.4 -5.4 86 -10 -8 1007.7 1005.4
12 21.03 Ю 4 20 км 8/3 600 м
[Sc Ac trans]
-2.2 -4.7 83 -8 -7 1006.7 1004.5
15 21.03 Ю 6 20 км 10/8 300 м
[Sc Ac As]
-1.8 -2.5 95 -9 -9 1005.3 1003.1 -1.8
18 21.03 ЮЗ 8-10
{12}
4000 м слаб. ливневой снег {метель} 10/10 300 м
[Cb cap]
-2.9 -3.4 96 -11 -11 1003.9 1001.7
21 21.03 ЮЗ 7
{12}
20 км {ливн. осадки, метель} 10/10 300 м
[Sc]
-2.5 -2.9 97 -10 -10 1002.9 1000.7
00 22.03 Ю 4 20 км {ливн. осадки, метель} 10/10 300 м
[Sc]
-2.2 -2.9 95 -8 -8 1002.1 999.9
03 22.03 З 2 4000 м дымка 10/10 300 м
[Sc]
-2.9 -3.3 97 -7 -7 1003.1 1000.9 -2.9 0.2 52
06 22.03 СВ 1 4000 м дымка 10/10 300 м
[St]
-2.7 -3.0 98 -5 -5 1005.0 1002.7 -3.2
09 22.03 С 2 20 км 10/10 300 м
[St]
-2.2 -3.2 93 -6 -6 1008.0 1005.7
12 22.03 С 4 20 км 10/10 600 м
[Sc]
-1.8 -3.9 86 -8 -8 1011.4 1009.2
15 22.03 З 2 20 км 10/10 600 м
[Sc]
-1.1 -3.8 82 -5 -5 1013.7 1011.4 -0.1
18 22.03 СЗ 4 20 км 10/10 600 м
[Sc]
-2.0 -4.3 84 -8 -8 1016.0 1013.7
21 22.03 СЗ 5 20 км 10/10 600 м
[Sc]
-4.4 -7.5 79 -11 -11 1017.1 1014.8
00 23.03 З 3 20 км ясно -5.0 -7.6 82 -10 -10 1017.2 1014.9
03 23.03 ЮЗ 5 20 км 10/10 300 м
[St]
-5.9 -6.8 93 -13 -13 1015.9 1013.6 -5.9 52
06 23.03 ЮЗ 8 20 км 10/10 300 м
[St]
-4.9 -5.6 95 -14 -14 1013.5 1011.2 -7.0
09 23.03 Ю 14-18
{18}
20 км 10/4 300 м
[St Ac As]
-1.2 -3.4 85 -11 -11 1008.2 1006.0
12 23.03 Ю 18-24
{24}
4000 м слаб. снег {метель} 10/0 300 м
[As op]
-1.1 -2.2 92 -12 -12 1002.3 1000.1
15 23.03 Ю 19-25
{25}
4000 м слаб. снег {метель} 10/0 300 м
[As op]
-0.5 -1.4 94 -11 -11 997.2 995.0 -0.5
18 23.03 ЮЗ 18-25
{25}
4000 м слаб. снег {метель} 10/0 300 м
[As op]
-0.4 -1.6 92 -11 -11 993.6 991.4
21 23.03 ЮЗ 13-17
{25}
4000 м слаб. снег {метель} 10/0 300 м
[As op]
-0.6 -1.3 95 -10 -10 991.7 989.5
00 24.03 ЮЗ 11-14
{17}
4000 м слаб. снег {метель} 10/0 300 м
[As op]
-0.3 -1.0 95 -9 -9 990.0 987.8
03 24.03 ЮЗ 13-16
{16}
20 км позёмок 10/0 300 м
[Ac As]
-0.5 -1.5 93 -10 -10 990.2 988.0 -0.8 0.9
06 24.03 ЮЗ 12-15
{16}
20 км позёмок {снег} 10/8 300 м
[Sc Ac und]
-0.6 -1.8 92 -10 -10 990.9 988.7
09 24.03 ЮЗ 10-14
{16}
20 км {метель} 10/10 300 м
[Sc]
-0.0 -1.3 91 -8 -8 991.1 988.9
12 24.03 Ю 10-14
{14}
20 км {метель} 3/3 300 м
[Sc]
+0.9 -1.3 85 -7 -7 991.0 988.8
15 24.03 Ю 9-12
{14}
20 км 9/9 600 м
[Sc]
+1.0 -1.2 85 -7 -7 991.0 988.8
18 24.03 Ю 10-14
{14}
4000 м слаб. ливневой снег 10/10 300 м
[Cb cap]
0.0 -0.7 95 -8 -8 991.1 988.9
21 24.03 ЮЗ 6
{14}
20 км {ливн. осадки} 10/10 300 м
[Cb cap]
-0.8 -1.5 95 -8 -8 991.3 989.1
00 25.03 Ю 5 20 км {ливн. осадки} 10/10 300 м
[Sc]
-0.9 -1.9 93 -7 -7 991.8 989.6
03 25.03 Ю 5 20 км 10/10 300 м
[Sc]
-1.2 -2.4 92 -8 -8 992.8 990.6 -1.2 0.2 52
06 25.03 Ю 4 20 км 10/10 600 м
[Sc]
-1.1 -2.1 93 -7 -7 993.7 991.5 -1.4
09 25.03 Ю 2 20 км 10/10 300 м
[St]
+0.1 -1.8 87 -4 -4 994.9 992.7
12 25.03 Ю 1 20 км 10/10 300 м
[St]
-0.1 -1.4 91 -2 -2 995.9 993.7
15 25.03 СВ 1 4000 м слаб. снег 10/0
[As op]
-1.2 -1.6 97 -4 -4 996.4 994.2 +0.4 0.2
18 25.03 С 3 4000 м слаб. снег 10/0
[As op]
-2.3 -2.5 99 -8 -8 996.8 994.6
21 25.03 С 4 4000 м дымка {снег} ясно -2.5 -2.9 97 -9 -9 996.8 994.6
00 26.03 С 9
{13}
4000 м дымка {снег} ясно -1.6 -2.3 95 -10 -10 996.8 994.6
03 26.03 С 10
{14}
4000 м слаб. ливневой снег {метель} 10/10 300 м
[Cb cap]
-1.7 -2.7 93 -11 -11 997.6 995.4 -3.1 0.6 52
06 26.03 С 13-16
{17}
20 км позёмок {ливн. осадки} 10/8 300 м
[Sc Ac und]
-2.3 -4.3 86 -12 -12 998.5 996.3
09 26.03 С 9-12
{16}
20 км позёмок 10/0
[Ac und]
-1.4 -4.9 77 -10 -9 1000.4 998.2
12 26.03 С 7
{12}
20 км 8/0
[Ac trans]
-1.2 -4.7 77 -8 -8 1002.2 1000.0
15 26.03 С 6 20 км 8/0
[Ac trans]
-1.8 -3.7 87 -9 -9 1003.9 1001.7 -1.0
18 26.03 С 6 20 км 8/0
[Ac trans]
-3.1 -4.8 88 -11 -11 1005.6 1003.3

 

Местоположение метеостанции Сосновец Остров (Мурманская область, Россия): широта 66.48 долгота 40.68 высота над уровнем моря 18 м.

В архиве по умолчанию представлена погода на Сосновец Острове за последнюю неделю. Архивные данные за месяц целиком и за предыдущие месяцы, начиная с января 2011 года, Вы можете получить, выбрав интересующий диапазон дат из раскрывающегося списка и нажав кнопку "Ввод!".


*Определитесь, кто Вы:
робот инопланетянин человек

Внимание! Время в таблицах - всемирное. Для получения местного времени необходимо прибавить поправку, которая равна 3 ч.

Смотрите также архив погоды в соседних городах и на ближайших метеорологических станциях:

Погода в Пялице (Мурманская область, Россия) (61 км)
Погода на Моржовец Острове (Архангельская область, Россия) (84 км)
Погода в Каневке (Мурманская область, Россия) (85 км)
Погода в Абрамовском маяке (Архангельская область, Россия) (115 км)
Погода в Зимнегорском Маяке (Архангельская область, Россия) (121 км)
Погода в Кепино (Архангельская область, Россия) (133 км)
Погода на Чаваньга реке (Мурманская область, Россия) (138 км)
Погода в Мезене (Архангельская область, Россия) (173 км)
Погода в Неси (Ненецкий АО, Россия) (178 км)
Погода в Иоканьге (Мурманская область, Россия) (182 км)

Пояснения к столбцам:

Ветер - указаны скорость ветра в м/с - средняя за 10 мин, порывы в срок и между сроками (в фигурных скобках) и направление, откуда дует ветер: С - северный, СВ - северо-восточный, В - восточный, ЮВ - юго-восточный, Ю - южный, ЮЗ - юго-западный, З - западный, СЗ - северо-западный.
Видимость - горизонтальная дальность видимости в метрах или километрах. При видимости от 1 до 10 км при отсутствии осадков обычно наблюдается дымка, при ухудшении видимости до 1 км и менее - туман. В сухую погоду видимость может ухудшаться дымом, пылью или мглою.
Явления - указаны атмосферные явления, наблюдавшиеся в срок или в последний час перед сроком; фигурными скобками обозначены явления, наблюдавшиеся между сроками (за 1-3 часа до срока); квадратными скобками обозначены град или гололедные отложения с указанием их диаметра в мм.
Облачность - указаны через наклонную черту общая и нижняя облачность в баллах и высота нижней границы облаков в метрах; квадратными скобками обозначены формы облаков: Ci - перистые, Cs - перисто-слоистые, Cc - перисто-кучевые, Ac - высококучевые, As - высокослоистые, Sc - слоисто-кучевые, Ns - слоисто-дождевые, Cu - кучевые, Cb - кучево-дождевые. Подробнее классификацию облаков см. в Атласе облаков (PDF).
T - Температура воздуха - температура, измеренная на высоте 2 м над землей.
Td - Температура точки росы - температура, при понижении до которой содержащийся в воздухе водяной пар достигнет насыщения.
f - Относительная влажность воздуха - влажноcть воздуха, измеренная на высоте 2 м над землей.
Te - Эффективная температура - температура, которую ощущает одетый по сезону человек в тени. Характеристика душности погоды. При расчете учитывается влияние влажности воздуха и скорости ветра на теплоощущения человека.
Tes - Эффективная температура на солнце - температура, которую ощущает человек, с поправкой на солнечный нагрев. Характеристика знойности погоды. Зависит от высоты солнца над горизонтом, облачности и скорости ветра. Ночью, в пасмурную погоду, а также при ветре 12 м/с и более поправка равна нулю.
P - Атмосферное давление - приведенное к уровню моря атмосферное давление.
Po - Атмосферное давление - измеренное на уровне метеостанции атмосферное давление.
Tmin - Минимальная температура - минимум температуры воздуха на высоте 2 м над землей.
Tmax - Максимальная температура - максимум температуры воздуха на высоте 2 м над землей.
R - Количество осадков - Количество выпавших осадков за период времени, мм. При наведении курсора мыши на число - период времени, за который выпало указанное количество осадков.
R24 - Количество осадков - Количество выпавших осадков за 24 часа, мм.
S - Снежный покров - Высота снежного покрова, см. При наведении курсора мыши на число - состояние снежного покрова и степень покрытия местности в баллах.